Voltar ao catálogo

GLOBAL-14

AtivoComunicaçõesVLEO
NORAD 49469·PAYLOAD·🇺🇸 United States

Lançado Nov 18, 2021 de Rocket Lab Launch Complex 1

Loading…

Próximas Passagens (próximas 24 horas)

TLE

AtualizadoSource: Space-Track

Época: Sep 13, 2026, 23:39 UTC

1 49469U 21106A   26256.98552765  .00027319  00000-0  40127-3 0  9999
2 49469  42.0022 121.7455 0019809 284.5085  75.3563 15.54683439271937

Acompanhe GLOBAL-14 em tempo real com AllMySat

Download on the App Store